BAW917 EHAM-EGLL

Flight info

Callsign BAW917
Flight time 0h 43m
Altitude 24000
Route IDRID L980 LOGAN
Aircraft A320/M-SDE3FGHIRWY/LB1

Departure

Time 2026-05-06 16:28
Airport Amsterdam Airport Schiphol (EHAM)

Arrival

Time 2026-05-06 17:11
Airport London Heathrow Airport (EGLL)
Time Latitude Longitude Altitude Speed Heading
2026-05-06 16:07 52.30715 4.77026 -1 ft 0 kts
2026-05-06 16:16 52.30698 4.77024 -1 ft 4 kts
2026-05-06 16:17 52.30674 4.77014 -1 ft 4 kts 28°
2026-05-06 16:17 52.30656 4.76989 -1 ft 4 kts 73°
2026-05-06 16:17 52.30654 4.76969 -1 ft 1 kts 93°
2026-05-06 16:17 52.30654 4.76967 -1 ft 2 kts 93°
2026-05-06 16:20 52.30654 4.76966 -1 ft 0 kts 93°
2026-05-06 16:20 52.30653 4.76994 -1 ft 5 kts 94°
2026-05-06 16:20 52.30651 4.77070 -1 ft 8 kts 93°
2026-05-06 16:21 52.30645 4.77182 -1 ft 11 kts 95°
2026-05-06 16:21 52.30595 4.77269 -1 ft 13 kts 192°
2026-05-06 16:21 52.30534 4.77143 -1 ft 16 kts 237°
2026-05-06 16:21 52.30472 4.76982 -1 ft 18 kts 238°
2026-05-06 16:22 52.30401 4.76797 -1 ft 20 kts 238°
2026-05-06 16:22 52.30321 4.76592 -1 ft 23 kts 237°
2026-05-06 16:22 52.30234 4.76363 -1 ft 25 kts 238°
2026-05-06 16:22 52.30161 4.76172 -1 ft 19 kts 237°
2026-05-06 16:23 52.30094 4.75997 -1 ft 19 kts 238°
2026-05-06 16:23 52.30019 4.75804 -1 ft 21 kts 237°
2026-05-06 16:23 52.29939 4.75592 -1 ft 20 kts 238°
2026-05-06 16:23 52.29877 4.75433 -1 ft 17 kts 236°
2026-05-06 16:24 52.29839 4.75250 -1 ft 18 kts 275°
2026-05-06 16:24 52.29909 4.75070 -1 ft 20 kts 314°
2026-05-06 16:24 52.30009 4.74887 -1 ft 23 kts 311°
2026-05-06 16:24 52.30117 4.74686 7 ft 22 kts 311°
2026-05-06 16:25 52.30219 4.74498 10 ft 18 kts 311°
2026-05-06 16:25 52.30290 4.74364 8 ft 17 kts 311°
2026-05-06 16:25 52.30374 4.74204 -1 ft 15 kts 310°
2026-05-06 16:25 52.30418 4.74119 -1 ft 8 kts 307°
2026-05-06 16:26 52.30420 4.74031 -1 ft 10 kts 245°
2026-05-06 16:26 52.30410 4.73901 -2 ft 14 kts 274°
2026-05-06 16:26 52.30449 4.73768 -3 ft 15 kts 347°
2026-05-06 16:26 52.30563 4.73771 -3 ft 18 kts
2026-05-06 16:27 52.30780 4.73793 0 ft 58 kts
2026-05-06 16:27 52.31402 4.73847 -2 ft 119 kts
2026-05-06 16:27 52.32395 4.73936 34 ft 163 kts
2026-05-06 16:27 52.33552 4.74041 489 ft 175 kts 10°
2026-05-06 16:28 52.34721 4.74760 1079 ft 183 kts 27°
2026-05-06 16:28 52.35863 4.75669 1895 ft 180 kts 20°
2026-05-06 16:28 52.37078 4.75652 2750 ft 182 kts 342°
2026-05-06 16:28 52.38057 4.74280 3380 ft 201 kts 304°
2026-05-06 16:29 52.38413 4.71900 3733 ft 235 kts 269°
2026-05-06 16:29 52.38095 4.69107 4129 ft 265 kts 253°
2026-05-06 16:29 52.37173 4.66371 4731 ft 286 kts 237°
2026-05-06 16:29 52.36126 4.63605 5543 ft 286 kts 241°
2026-05-06 16:30 52.35174 4.60772 5824 ft 282 kts 243°
2026-05-06 16:30 52.34578 4.58887 6025 ft 283 kts 244°
2026-05-06 16:30 52.33403 4.55063 7335 ft 281 kts 244°
2026-05-06 16:30 52.32524 4.52195 8293 ft 284 kts 244°
2026-05-06 16:31 52.31632 4.49292 9211 ft 287 kts 244°
2026-05-06 16:31 52.30725 4.46369 10053 ft 292 kts 244°
2026-05-06 16:31 52.29762 4.43286 10355 ft 316 kts 244°
2026-05-06 16:31 52.28726 4.39986 10600 ft 338 kts 244°
2026-05-06 16:32 52.27634 4.36520 11153 ft 347 kts 243°
2026-05-06 16:32 52.26517 4.33000 11888 ft 350 kts 243°
2026-05-06 16:32 52.25389 4.29456 12637 ft 354 kts 243°
2026-05-06 16:32 52.24250 4.25880 13417 ft 356 kts 243°
2026-05-06 16:33 52.23146 4.22420 14098 ft 359 kts 243°
2026-05-06 16:33 52.21987 4.18793 14754 ft 362 kts 243°
2026-05-06 16:33 52.20819 4.15139 15394 ft 365 kts 243°
2026-05-06 16:34 52.18455 4.07745 16688 ft 371 kts 243°
2026-05-06 16:34 52.17257 4.04002 17322 ft 374 kts 243°
2026-05-06 16:34 52.16048 4.00221 17989 ft 377 kts 242°
2026-05-06 16:34 52.14826 3.96420 18609 ft 381 kts 242°
2026-05-06 16:35 52.13590 3.92588 19215 ft 384 kts 242°
2026-05-06 16:35 52.12345 3.88737 19854 ft 386 kts 242°
2026-05-06 16:35 52.11088 3.84849 20472 ft 389 kts 242°
2026-05-06 16:35 52.09824 3.80941 21069 ft 392 kts 242°
2026-05-06 16:36 52.08551 3.77008 21630 ft 394 kts 242°
2026-05-06 16:36 52.07270 3.73054 22163 ft 397 kts 242°
2026-05-06 16:36 52.05976 3.69066 22713 ft 400 kts 242°
2026-05-06 16:36 52.04671 3.65054 23236 ft 402 kts 241°
2026-05-06 16:37 52.03359 3.61029 23702 ft 405 kts 241°
2026-05-06 16:37 52.02031 3.56978 23878 ft 406 kts 241°
2026-05-06 16:37 52.00684 3.52880 23932 ft 417 kts 241°
2026-05-06 16:37 51.99224 3.48782 23925 ft 421 kts 235°
2026-05-06 16:38 51.97502 3.44935 23924 ft 422 kts 233°
2026-05-06 16:38 51.95788 3.41145 23941 ft 422 kts 233°
2026-05-06 16:38 51.94049 3.37304 23946 ft 422 kts 233°
2026-05-06 16:38 51.92310 3.33466 23932 ft 422 kts 233°
2026-05-06 16:39 51.90570 3.29631 23930 ft 423 kts 233°
2026-05-06 16:39 51.88825 3.25794 23939 ft 423 kts 233°
2026-05-06 16:39 51.87111 3.21941 23938 ft 423 kts 236°
2026-05-06 16:39 51.85722 3.17746 23928 ft 423 kts 246°
2026-05-06 16:40 51.84795 3.13228 23932 ft 424 kts 256°
2026-05-06 16:40 51.84346 3.08509 23932 ft 426 kts 263°
2026-05-06 16:40 51.84058 3.03739 23936 ft 426 kts 263°
2026-05-06 16:40 51.83755 2.98973 23937 ft 426 kts 263°
2026-05-06 16:41 51.83442 2.94209 23932 ft 426 kts 262°
2026-05-06 16:41 51.83122 2.89453 23939 ft 426 kts 262°
2026-05-06 16:41 51.82799 2.84692 23942 ft 426 kts 262°
2026-05-06 16:41 51.82478 2.79941 23949 ft 425 kts 262°
2026-05-06 16:42 51.82154 2.75191 23941 ft 425 kts 262°
2026-05-06 16:42 51.81828 2.70439 23945 ft 425 kts 262°
2026-05-06 16:42 51.81504 2.65683 23951 ft 425 kts 262°
2026-05-06 16:42 51.81180 2.60934 23947 ft 425 kts 262°
2026-05-06 16:43 51.80854 2.56180 23945 ft 425 kts 262°
2026-05-06 16:43 51.80526 2.51435 23948 ft 425 kts 262°
2026-05-06 16:43 51.80194 2.46692 23956 ft 425 kts 262°
2026-05-06 16:43 51.79860 2.41952 23950 ft 425 kts 262°
2026-05-06 16:44 51.79523 2.37207 23947 ft 425 kts 262°
2026-05-06 16:44 51.79184 2.32466 23944 ft 425 kts 262°
2026-05-06 16:44 51.78842 2.27721 23950 ft 425 kts 262°
2026-05-06 16:44 51.78502 2.22981 23952 ft 425 kts 262°
2026-05-06 16:45 51.78181 2.18303 23950 ft 425 kts 263°
2026-05-06 16:45 51.77889 2.13553 23954 ft 425 kts 263°
2026-05-06 16:45 51.77616 2.08736 23946 ft 425 kts 263°
2026-05-06 16:45 51.77358 2.04051 23946 ft 425 kts 264°
2026-05-06 16:46 51.77090 1.99296 23947 ft 425 kts 263°
2026-05-06 16:46 51.76818 1.94547 23948 ft 425 kts 263°
2026-05-06 16:46 51.76538 1.89800 23949 ft 425 kts 263°
2026-05-06 16:46 51.76246 1.84982 23948 ft 425 kts 263°
2026-05-06 16:47 51.75957 1.80309 23943 ft 425 kts 263°
2026-05-06 16:47 51.75662 1.75560 23946 ft 425 kts 263°
2026-05-06 16:47 51.75359 1.70747 23950 ft 425 kts 263°
2026-05-06 16:47 51.75062 1.66067 23952 ft 425 kts 263°
2026-05-06 16:48 51.74761 1.61316 23947 ft 426 kts 263°
2026-05-06 16:48 51.74462 1.56597 23750 ft 418 kts 263°
2026-05-06 16:48 51.74163 1.51882 22583 ft 424 kts 263°
2026-05-06 16:48 51.73862 1.47187 21995 ft 416 kts 263°
2026-05-06 16:49 51.73564 1.42580 21307 ft 411 kts 264°
2026-05-06 16:49 51.73269 1.38013 20625 ft 408 kts 264°
2026-05-06 16:49 51.72971 1.33476 19977 ft 405 kts 264°
2026-05-06 16:49 51.72672 1.28973 19372 ft 402 kts 264°
2026-05-06 16:50 51.72374 1.24502 18796 ft 400 kts 264°
2026-05-06 16:50 51.72079 1.20051 18238 ft 398 kts 264°
2026-05-06 16:50 51.71785 1.15632 17631 ft 395 kts 264°
2026-05-06 16:50 51.71591 1.12727 17241 ft 393 kts 264°
2026-05-06 16:51 51.71198 1.06892 16484 ft 388 kts 264°
2026-05-06 16:51 51.70906 1.02638 16158 ft 377 kts 264°
2026-05-06 16:51 51.70616 0.98464 15959 ft 374 kts 264°
2026-05-06 16:51 51.70324 0.94282 15997 ft 375 kts 264°
2026-05-06 16:52 51.70035 0.90103 15986 ft 376 kts 264°
2026-05-06 16:52 51.69747 0.85915 15998 ft 376 kts 264°
2026-05-06 16:52 51.69460 0.81754 15990 ft 367 kts 264°
2026-05-06 16:52 51.69181 0.77749 15996 ft 354 kts 264°
2026-05-06 16:53 51.68904 0.73821 15998 ft 352 kts 264°
2026-05-06 16:53 51.68626 0.69906 15997 ft 352 kts 264°
2026-05-06 16:53 51.68340 0.65988 16000 ft 352 kts 263°
2026-05-06 16:53 51.68044 0.62079 15991 ft 351 kts 263°
2026-05-06 16:54 51.67745 0.58184 15377 ft 353 kts 263°
2026-05-06 16:54 51.67545 0.55581 14933 ft 355 kts 263°
2026-05-06 16:54 51.67245 0.51636 14371 ft 354 kts 263°
2026-05-06 16:54 51.66947 0.47712 13858 ft 351 kts 263°
2026-05-06 16:55 51.66652 0.43821 13299 ft 349 kts 263°
2026-05-06 16:55 51.66354 0.39926 12565 ft 352 kts 263°
2026-05-06 16:55 51.66051 0.36028 11957 ft 350 kts 263°
2026-05-06 16:55 51.65742 0.32146 11406 ft 347 kts 263°
2026-05-06 16:56 51.65430 0.28312 10878 ft 344 kts 263°
2026-05-06 16:56 51.65113 0.24479 10224 ft 345 kts 263°
2026-05-06 16:56 51.64791 0.20656 9645 ft 343 kts 263°
2026-05-06 16:56 51.64487 0.16850 9058 ft 340 kts 265°
2026-05-06 16:57 51.64262 0.13102 8682 ft 332 kts 266°
2026-05-06 16:57 51.64082 0.09463 8446 ft 320 kts 267°
2026-05-06 16:57 51.63917 0.05868 7841 ft 323 kts 267°
2026-05-06 16:57 51.63751 0.02277 7335 ft 321 kts 267°
2026-05-06 16:58 51.63577 -0.01295 7050 ft 318 kts 267°
2026-05-06 16:58 51.63397 -0.04741 6993 ft 295 kts 266°
2026-05-06 16:58 51.63222 -0.07862 7047 ft 266 kts 266°
2026-05-06 16:58 51.63062 -0.10698 7059 ft 247 kts 267°
2026-05-06 16:59 51.62910 -0.13484 7060 ft 252 kts 267°
2026-05-06 16:59 51.62756 -0.16301 7055 ft 253 kts 267°
2026-05-06 16:59 51.62599 -0.19117 7053 ft 253 kts 266°
2026-05-06 16:59 51.62443 -0.21929 7064 ft 251 kts 267°
2026-05-06 17:00 51.62288 -0.24673 7061 ft 243 kts 266°
2026-05-06 17:00 51.62140 -0.27349 7064 ft 243 kts 266°
2026-05-06 17:00 51.61990 -0.30053 7064 ft 242 kts 267°
2026-05-06 17:00 51.61838 -0.32754 7006 ft 242 kts 267°
2026-05-06 17:01 51.61686 -0.35455 7009 ft 243 kts 266°
2026-05-06 17:01 51.61532 -0.38163 7012 ft 249 kts 266°
2026-05-06 17:01 51.61370 -0.41029 7012 ft 262 kts 266°
2026-05-06 17:01 51.61200 -0.43965 7011 ft 264 kts 266°
2026-05-06 17:02 51.61029 -0.46915 7007 ft 265 kts 266°
2026-05-06 17:02 51.60857 -0.49845 6822 ft 263 kts 266°
2026-05-06 17:02 51.60684 -0.52774 6526 ft 262 kts 266°
2026-05-06 17:02 51.60512 -0.55706 6080 ft 267 kts 266°
2026-05-06 17:03 51.60336 -0.58698 5642 ft 270 kts 266°
2026-05-06 17:03 51.60159 -0.61711 5276 ft 270 kts 266°
2026-05-06 17:03 51.59981 -0.64714 5026 ft 268 kts 266°
2026-05-06 17:03 51.59801 -0.67704 5002 ft 270 kts 266°
2026-05-06 17:04 51.59618 -0.70675 4999 ft 261 kts 266°
2026-05-06 17:04 51.59440 -0.73526 4876 ft 253 kts 266°
2026-05-06 17:04 51.59190 -0.76286 4747 ft 246 kts 252°
2026-05-06 17:04 51.58269 -0.78520 4559 ft 241 kts 219°
2026-05-06 17:05 51.56762 -0.79595 4278 ft 238 kts 184°
2026-05-06 17:05 51.55147 -0.79464 4112 ft 230 kts 174°
2026-05-06 17:05 51.53546 -0.79326 4010 ft 230 kts 177°
2026-05-06 17:05 51.51950 -0.79265 4008 ft 230 kts 178°
2026-05-06 17:06 51.50346 -0.79218 4008 ft 231 kts 178°
2026-05-06 17:06 51.48765 -0.78985 3991 ft 223 kts 158°
2026-05-06 17:06 51.47597 -0.77507 3785 ft 215 kts 116°
2026-05-06 17:06 51.47370 -0.75213 3454 ft 210 kts 76°
2026-05-06 17:07 51.47631 -0.72935 3188 ft 207 kts 84°
2026-05-06 17:07 51.47654 -0.70653 2895 ft 203 kts 88°
2026-05-06 17:07 51.47655 -0.68435 2616 ft 198 kts 87°
2026-05-06 17:07 51.47663 -0.66254 2357 ft 192 kts 86°
2026-05-06 17:08 51.47674 -0.64131 2101 ft 188 kts 86°
2026-05-06 17:08 51.47685 -0.62037 1849 ft 184 kts 86°
2026-05-06 17:08 51.47695 -0.60049 1599 ft 171 kts 87°
2026-05-06 17:08 51.47702 -0.58258 1393 ft 150 kts 87°
2026-05-06 17:09 51.47710 -0.56662 1180 ft 140 kts 86°
2026-05-06 17:09 51.47718 -0.55140 980 ft 136 kts 85°
2026-05-06 17:09 51.47723 -0.53632 773 ft 135 kts 86°
2026-05-06 17:09 51.47733 -0.52134 594 ft 134 kts 86°
2026-05-06 17:10 51.47740 -0.50638 415 ft 134 kts 86°
2026-05-06 17:10 51.47747 -0.49151 218 ft 134 kts 86°
2026-05-06 17:10 51.47754 -0.47672 91 ft 126 kts 86°
2026-05-06 17:10 51.47763 -0.46528 90 ft 77 kts 89°
2026-05-06 17:11 51.47765 -0.45904 85 ft 47 kts 91°
2026-05-06 17:11 51.47757 -0.45544 86 ft 18 kts 115°
2026-05-06 17:11 51.47672 -0.45468 88 ft 15 kts 178°
2026-05-06 17:11 51.47596 -0.45553 89 ft 17 kts 266°
2026-05-06 17:12 51.47592 -0.45756 87 ft 20 kts 271°
2026-05-06 17:12 51.47594 -0.45991 90 ft 19 kts 270°
2026-05-06 17:12 51.47592 -0.46216 87 ft 21 kts 269°
2026-05-06 17:12 51.47593 -0.46470 87 ft 24 kts 271°
2026-05-06 17:13 51.47592 -0.46738 87 ft 22 kts 269°
2026-05-06 17:13 51.47582 -0.46988 91 ft 23 kts 269°
2026-05-06 17:13 51.47582 -0.47258 91 ft 25 kts 270°
2026-05-06 17:13 51.47581 -0.47520 90 ft 22 kts 269°
2026-05-06 17:14 51.47580 -0.47774 88 ft 24 kts 270°
2026-05-06 17:14 51.47580 -0.48025 89 ft 19 kts 270°
2026-05-06 17:14 51.47578 -0.48250 88 ft 20 kts 269°
2026-05-06 17:14 51.47577 -0.48382 87 ft 10 kts 269°
2026-05-06 17:15 51.47554 -0.48478 91 ft 10 kts 207°
2026-05-06 17:15 51.47481 -0.48478 88 ft 12 kts 179°
2026-05-06 17:15 51.47393 -0.48477 87 ft 13 kts 180°
2026-05-06 17:15 51.47298 -0.48476 87 ft 13 kts 179°
2026-05-06 17:16 51.47236 -0.48478 87 ft 5 kts 199°
2026-05-06 17:16 51.47232 -0.48531 90 ft 5 kts 270°
2026-05-06 17:16 51.47232 -0.48573 88 ft 2 kts 270°
2026-05-06 17:16 51.47232 -0.48588 87 ft 0 kts 270°